Theta_e
263 262 262 262 262 261 261 261 261 261 261 261 261 261 261 261 262 262 262 262 262 262 262 262 262 262 262 262 263 263 263 264 264 265 265 265 264 264 264 264 264 263
262 262 262 262 261 261 261 261 261 261 261 261 260 260 260 261 261 261 261 261 261 261 261 261 261 261 261 261 262 262 262 262 263 264 264 264 264 264 263 263 263 263
262 262 262 261 261 261 261 261 261 261 260 260 260 260 260 260 260 260 260 260 260 260 260 260 260 260 260 261 261 261 261 261 262 262 262 263 263 263 263 263 263 263
262 261 261 261 261 261 261 261 261 260 260 260 259 259 259 259 259 259 259 259 259 260 260 260 260 259 260 260 260 260 260 260 260 261 261 261 262 262 262 262 262 263
261 261 261 261 261 261 260 260 260 259 259 259 258 258 258 258 259 259 259 259 259 259 259 259 259 259 259 259 259 259 259 259 260 260 260 260 261 261 262 262 262 262
261 261 261 261 261 260 260 259 259 258 258 258 258 258 258 258 258 258 258 258 258 258 258 258 258 258 258 258 258 258 258 258 259 259 259 259 260 261 262 262 262 262
262 261 261 261 260 260 259 259 259 258 258 258 258 258 258 258 258 258 258 258 258 258 258 258 258 258 258 258 258 258 258 258 258 258 258 259 260 260 261 262 262 261
261 261 260 260 260 259 259 259 258 258 258 258 258 258 258 258 257 257 257 257 257 257 257 257 257 257 257 257 257 257 257 257 257 258 258 258 259 260 261 261 261 261
260 260 260 259 259 259 259 258 258 258 258 258 258 258 257 257 257 257 256 256 256 256 256 256 256 256 257 256 256 257 257 257 257 257 258 258 259 260 260 261 261 261
260 259 259 259 259 259 259 258 258 258 258 258 257 257 257 257 257 256 256 256 256 256 256 256 256 256 256 256 256 256 256 256 257 257 257 258 259 260 260 260 260 260
259 259 259 259 259 259 259 258 258 258 258 257 257 257 257 257 257 256 256 256 256 256 256 256 256 256 256 256 256 256 256 256 256 257 258 259 259 259 260 260 260 260
259 259 259 259 259 259 258 258 258 257 257 257 257 257 257 257 257 256 256 256 256 256 256 256 256 256 256 256 256 256 256 256 256 257 258 258 259 259 260 260 260 260
259 259 259 259 258 258 258 257 257 257 257 257 257 257 257 257 257 257 256 256 256 256 256 256 256 256 256 256 256 256 256 256 257 257 258 258 259 259 260 260 260 260
259 259 259 258 258 257 257 257 257 257 257 257 257 257 257 256 256 256 256 256 256 256 256 255 255 255 256 255 256 256 256 256 256 257 258 258 259 259 260 260 259 259
259 258 258 258 257 257 257 257 257 257 256 256 256 256 256 256 255 255 256 255 256 256 256 255 255 255 255 255 255 256 256 256 257 258 258 259 259 260 260 259 259 258
258 258 258 257 257 257 257 256 256 256 256 256 256 256 255 255 255 255 255 255 255 256 256 255 255 255 256 255 255 256 257 257 258 258 259 259 259 259 259 258 258 257
258 258 257 257 257 257 256 256 256 256 256 256 255 255 255 255 255 255 255 255 255 255 255 255 255 256 256 255 255 257 258 258 259 259 259 259 259 258 258 257 257 256
257 257 257 257 257 256 256 256 255 255 255 255 255 255 255 255 255 255 255 255 255 255 255 256 256 256 256 255 255 257 258 259 259 259 259 259 258 257 257 256 256 256
257 257 256 256 256 256 256 255 255 255 255 255 255 255 255 255 255 255 255 255 255 255 255 256 256 256 256 255 255 257 258 259 259 259 258 258 257 256 256 256 255 255
257 256 256 256 256 256 255 255 255 255 255 255 254 254 254 255 255 255 255 255 255 255 255 256 256 257 256 255 255 257 258 258 258 258 257 257 256 255 255 255 255 255
256 256 256 255 255 255 255 255 255 255 255 255 254 254 254 254 254 254 254 255 255 254 255 256 257 257 256 255 255 256 257 258 257 257 256 255 255 255 255 255 254 254
256 255 255 255 255 255 255 255 255 255 255 254 254 254 254 254 254 253 253 254 255 255 254 256 257 257 256 255 255 255 256 256 256 255 255 255 255 254 254 254 254 253
255 255 255 255 255 255 255 255 255 254 254 254 254 254 254 254 254 253 253 253 254 255 254 255 257 257 256 256 255 255 255 255 254 254 254 254 254 254 254 253 253 253
255 255 254 255 255 254 255 255 254 254 254 254 253 253 253 254 254 253 254 254 254 255 254 254 256 258 257 256 255 255 254 254 254 254 254 254 254 253 253 253 253 253
255 255 254 254 255 254 254 254 254 254 254 254 253 253 253 254 253 253 254 255 254 255 255 254 255 257 257 256 256 255 254 254 254 254 253 253 253 253 253 252 252 253
255 255 255 254 255 255 254 255 254 254 254 253 253 253 252 253 253 252 253 255 255 254 255 255 255 256 257 257 255 255 254 254 253 253 253 253 252 252 252 252 252 252
Wind_Speed
22 22 22 23 23 23 23 24 26 26 27 28 28 29 30 30 30 31 31 31 30 30 29 29 28 27 27 26 25 23 22 19 17 17 19 22 22 21 21 20 19 18
22 22 22 23 23 24 23 24 26 26 27 27 27 29 29 30 30 29 30 30 31 31 30 30 30 29 28 27 26 25 23 22 20 17 18 21 21 21 22 21 21 20
21 22 22 23 24 25 25 25 26 26 27 28 28 29 30 29 29 29 29 30 30 31 31 31 31 30 29 28 27 26 25 23 22 20 19 20 19 21 22 21 22 21
21 22 22 23 24 25 25 26 27 27 28 29 28 29 30 29 29 29 29 29 30 30 31 30 30 29 29 29 28 28 27 25 24 23 23 22 20 20 22 22 22 23
21 22 22 23 24 25 25 25 26 26 27 28 28 30 30 29 30 30 30 30 30 30 30 30 29 29 29 29 29 28 28 28 26 25 25 25 23 21 21 22 22 23
22 22 21 22 22 23 23 23 24 26 27 28 29 30 30 29 30 30 30 30 30 30 30 30 29 29 28 29 29 29 29 29 29 27 26 26 25 22 21 21 21 22
22 21 20 20 20 21 21 23 25 27 28 29 30 31 30 30 31 31 31 31 30 30 29 29 29 28 28 28 29 30 29 29 29 29 28 26 25 24 22 21 21 22
21 20 19 19 20 21 22 24 26 28 29 30 31 31 31 31 31 31 31 30 30 30 29 28 28 28 28 28 29 30 30 30 29 29 28 26 25 26 25 23 23 23
20 20 19 19 20 22 24 26 27 29 30 31 32 32 31 30 30 30 30 30 30 30 29 29 29 29 28 28 28 30 30 31 30 29 27 26 26 27 27 26 26 24
20 20 20 21 22 24 25 27 28 29 30 31 32 32 31 31 31 30 30 31 31 31 30 30 29 29 29 29 29 30 30 31 30 28 26 26 27 28 28 27 25 23
20 20 21 23 24 25 26 27 29 30 30 31 32 32 32 32 31 31 31 32 32 31 31 30 30 29 29 30 30 29 30 30 29 27 26 26 28 28 26 25 23 23
21 21 22 24 25 26 27 28 29 30 31 32 31 32 33 32 32 32 32 32 32 31 30 30 30 29 29 29 30 30 30 28 26 26 27 28 28 26 24 25 25 24
22 23 24 25 25 26 27 28 29 31 32 32 31 32 32 32 33 33 32 32 32 31 31 30 30 30 30 29 29 30 29 28 26 27 29 29 28 26 26 27 26 23
23 24 24 25 25 26 27 29 30 31 32 32 32 32 32 32 33 33 33 32 32 32 31 31 31 31 30 30 29 29 28 28 28 29 29 29 28 27 27 26 24 21
24 24 24 25 26 27 28 29 30 31 32 32 32 32 32 32 32 32 33 33 33 32 32 32 32 31 31 30 29 28 29 29 29 29 28 28 27 27 25 23 21 22
24 24 25 26 27 28 29 30 31 32 32 32 33 33 33 33 33 33 33 33 34 34 33 33 33 32 31 30 28 28 29 29 29 29 28 28 27 26 24 22 22 24
25 25 26 27 28 29 30 30 31 32 32 33 33 34 34 34 34 34 34 34 34 34 34 34 33 33 31 29 27 27 27 27 28 29 28 27 26 24 23 24 25 26
25 26 27 28 29 30 30 31 32 32 32 33 34 34 35 35 35 35 35 34 34 34 35 34 34 33 31 29 27 27 27 27 28 29 28 26 24 23 25 27 27 27
25 26 28 29 30 30 31 32 32 33 33 34 34 35 35 35 35 35 35 34 34 35 35 35 34 33 31 29 27 27 27 27 28 28 27 27 26 27 29 28 28 29
26 27 28 30 30 31 32 32 32 33 34 34 34 34 35 36 36 36 36 35 35 35 36 37 35 33 32 29 27 27 27 27 27 28 28 29 29 30 30 29 30 30
26 27 29 30 31 32 32 33 33 33 34 34 34 34 35 36 35 35 36 36 36 36 37 38 36 34 32 29 27 27 27 27 27 28 29 30 31 29 29 31 31 31
26 28 29 31 32 32 33 33 34 34 34 35 35 35 35 36 36 35 35 37 37 36 37 38 38 35 32 30 28 27 27 27 28 29 30 30 30 30 30 32 31 30
27 28 30 31 32 33 34 35 35 35 35 34 35 36 37 37 37 37 36 36 37 36 36 38 39 36 33 31 29 27 27 28 29 30 30 30 31 32 32 32 32 31
28 29 30 31 32 33 34 36 36 36 35 34 34 36 38 38 38 38 38 37 37 37 36 37 39 38 34 33 30 27 26 27 29 30 30 31 32 33 33 33 34 33
29 29 30 31 33 34 35 36 37 36 36 35 35 35 37 38 38 39 40 39 38 38 37 37 38 38 35 33 32 28 25 26 27 29 31 32 33 34 35 34 34 34
30 30 31 32 34 35 36 36 36 36 36 36 36 36 37 39 38 38 40 41 40 40 39 37 37 37 36 34 32 30 27 25 26 28 30 32 33 34 35 36 35 33
Wind_Direction
15 13 10 11 10 9 7 4 3 1 0 359 357 355 352 350 349 348 346 345 344 343 342 342 341 341 339 337 337 334 333 333 325 319 315 313 319 323 326 333 338 337
9 8 6 6 5 4 3 1 360 359 357 356 355 353 351 349 348 347 345 343 342 341 340 340 339 339 338 337 336 334 332 330 326 324 317 312 314 315 318 324 328 332
4 3 1 1 0 359 358 356 356 355 353 352 352 351 350 349 347 345 344 342 341 339 339 338 337 336 336 335 335 332 331 329 326 325 318 312 312 311 312 316 319 323
357 358 356 355 355 354 353 352 351 352 350 349 349 349 348 347 346 344 342 341 340 338 337 336 335 334 333 333 332 331 329 328 326 325 319 313 311 309 310 312 312 316
352 353 351 350 350 350 350 349 348 349 348 348 347 346 346 345 343 342 341 340 338 337 335 334 333 331 330 331 330 329 328 327 327 326 321 316 313 309 308 310 310 310
349 349 347 346 346 346 346 346 346 346 346 345 344 344 343 341 340 340 340 339 337 336 334 332 332 330 329 328 327 326 326 326 326 326 323 319 316 313 310 311 310 308
346 345 344 342 342 343 342 343 344 343 343 342 341 341 340 338 338 338 338 337 336 334 333 331 330 328 327 326 325 324 324 324 325 325 323 320 319 317 316 316 314 309
343 343 343 341 340 341 340 340 340 339 339 339 338 338 338 336 336 336 336 336 335 334 333 331 330 328 327 325 324 323 323 323 324 324 322 320 320 320 321 320 318 311
342 343 342 341 340 339 337 337 336 336 336 336 336 336 335 335 335 335 335 335 335 334 333 332 331 329 327 325 324 323 322 322 323 323 322 320 320 321 322 321 317 310
341 342 341 339 338 336 335 334 333 333 333 334 334 333 334 335 335 335 335 334 334 334 333 332 331 329 327 325 324 323 323 322 323 322 322 321 321 322 322 318 311 303
341 340 337 336 335 333 332 331 331 331 331 332 333 333 333 334 334 334 334 333 333 333 332 331 330 328 326 324 323 322 322 323 322 322 323 323 322 321 320 314 305 299
338 337 334 333 331 330 329 329 329 330 330 331 332 332 332 333 333 333 333 332 332 332 331 329 328 327 324 323 323 322 322 323 323 324 324 323 321 318 314 306 300 297
335 333 331 329 327 327 327 327 328 328 329 330 331 331 332 332 332 331 331 331 331 330 329 327 326 325 324 324 323 321 322 323 324 325 323 320 317 311 304 298 295 293
330 328 327 326 325 325 325 325 326 327 328 329 330 330 331 330 330 330 329 330 330 329 328 326 324 324 324 325 323 323 324 321 319 320 318 314 310 306 300 294 291 291
326 325 324 324 323 323 324 324 325 326 327 328 329 329 329 329 329 328 328 328 329 328 326 325 324 323 324 325 324 323 322 316 312 312 311 306 305 305 301 294 291 296
323 323 323 322 323 323 323 324 324 325 326 327 328 328 328 328 328 327 327 327 327 326 325 324 323 323 325 326 323 316 313 310 308 307 306 303 304 304 299 295 296 302
322 322 321 321 322 323 323 323 324 324 325 326 327 327 327 327 326 326 326 325 325 324 324 323 323 323 326 325 316 309 307 307 306 306 305 304 303 300 298 300 304 306
320 320 320 320 322 323 323 323 323 324 325 325 325 326 326 325 325 324 324 324 323 322 321 321 321 323 325 322 312 307 307 306 305 306 305 304 303 303 304 305 306 305
319 318 318 319 321 322 322 323 323 323 324 324 324 324 323 322 322 321 322 322 321 320 319 319 320 322 324 321 312 307 306 306 305 305 303 303 304 305 305 305 305 306
317 317 317 318 320 321 321 322 322 322 323 322 322 322 320 320 320 319 320 319 319 318 317 316 318 320 322 319 310 305 306 305 303 300 298 298 299 300 301 301 302 305
316 316 316 317 319 320 320 321 321 321 321 321 320 318 317 317 316 316 316 317 316 315 314 314 317 319 319 316 308 303 305 304 299 297 295 295 296 296 296 296 299 302
315 315 315 317 319 320 319 320 320 320 319 319 317 316 315 314 313 312 312 313 314 313 311 312 315 317 317 315 309 304 303 302 298 297 296 294 294 293 292 293 296 297
314 314 315 316 317 318 318 318 318 317 317 317 315 314 313 313 312 311 309 309 310 311 309 309 313 316 315 314 312 306 302 300 297 296 295 292 291 291 292 292 293 293
314 313 314 315 316 316 316 316 316 315 314 314 312 311 311 310 310 309 308 307 307 308 308 306 309 314 314 313 313 308 300 297 297 295 292 290 290 291 292 292 292 293
313 313 313 314 314 314 314 314 314 313 313 313 310 308 308 308 308 307 307 308 307 307 307 305 306 312 313 312 312 309 300 294 293 291 289 289 290 291 292 292 292 293
312 312 313 313 313 313 313 312 312 312 311 311 309 308 307 306 306 305 305 307 307 306 307 305 305 309 312 311 309 307 302 295 289 287 287 287 289 290 291 292 293 293